Weather History for Goodland, KS

Change the Weather History Date:

Sunday, August 31, 2014

  Actual Average Record
Temperature  
Mean Temperature 69 °F 71 °F  
Max Temperature 82 °F 85 °F 102 °F (1985)
Min Temperature 56 °F 57 °F 39 °F (1944)
Degree Days  
Heating Degree Days 0 1  
Month to date heating degree days 0 5  
Since 1 June heating degree days 51 49  
Since 1 July heating degree days 13 12  
Cooling Degree Days 4 7  
Month to date cooling degree days 304 279  
Year to date cooling degree days 802 833  
Since 1 June cooling degree days 756 792  
Growing Degree Days 18 (Base 50)    
Moisture  
Dew Point 57 °F    
Average Humidity 72    
Maximum Humidity 100    
Minimum Humidity 43    
Precipitation  
Precipitation 0.01 in 0.07 in 1.38 in (2006)
Month to date precipitation 2.76 2.70  
Year to date precipitation 13.90 15.90  
Snow  
Snow 0.00 in 0.00 in - ()
Month to date snowfall 0.0 0.0  
Since 1 June snowfall 0.0 0.0  
Since 1 July snowfall 0.0 0.0  
Snow Depth 0.00 in    
Sea Level Pressure  
Sea Level Pressure 29.76 in    
Wind  
Wind Speed 11 mph (East)    
Max Wind Speed 24 mph    
Max Gust Speed 30 mph    
Visibility 10 miles    
Events Rain , Thunderstorm    
T = Trace of Precipitation, MM = Missing Value Source: NWS Daily Summary

Daily Weather History Graph

Daily Weather History Graph

Search for Another Location

Airport:

Trip Planner

Search our weather history database for the weather conditions in past years. The results will help you decide how hot, cold, wet, or windy it might be!

Date:

Astronomy

Aug. 31, 2014 Rise Set
Actual Time 6:14 AM MDT 7:19 PM MDT
Civil Twilight 5:46 AM MDT 7:46 PM MDT
Nautical Twilight 5:13 AM MDT 8:19 PM MDT
Astronomical Twilight 4:39 AM MDT 8:53 PM MDT
Moon 12:00 PM MDT (8/31) 10:37 PM MDT (8/31)
Length of Visible Light 13h 59m
Length of Day
13h 04m
Waxing Crescent, 32% of the Moon is Illuminated
Aug 31
Waxing Crescent
Sep 2
First Quarter
Sep 8
Full
Sep 15
Last Quarter
Sep 24
New

Hourly Weather History & Observations

Time (MDT) Temp. Dew Point Humidity Pressure Visibility Wind Dir Wind Speed Gust Speed Precip Events Conditions
12:08 AM 72.0 °F 57.0 °F 59% 29.94 in 10.0 mi SSW 23.0 mph 32.2 mph N/A Thunderstorm Thunderstorm
12:53 AM 68.0 °F 55.0 °F 63% 29.81 in 10.0 mi South 13.8 mph 29.9 mph 0.00 in Thunderstorm Thunderstorm
1:19 AM 64.9 °F 55.0 °F 70% 29.95 in 10.0 mi SSW 11.5 mph - 0.00 in Thunderstorm Mostly Cloudy
1:36 AM 64.0 °F 55.9 °F 75% 29.91 in 10.0 mi SE 11.5 mph - 0.01 in Rain Light Rain
1:53 AM 64.9 °F 57.0 °F 75% 29.73 in 10.0 mi SE 12.7 mph - 0.01 in Rain Light Rain
2:53 AM 61.0 °F 55.9 °F 83% 29.74 in 10.0 mi SSE 8.1 mph - 0.00 in   Clear
3:53 AM 62.1 °F 57.9 °F 86% 29.71 in 10.0 mi SSE 10.4 mph - N/A   Clear
4:53 AM 63.0 °F 57.9 °F 84% 29.69 in 10.0 mi South 13.8 mph - N/A   Clear
5:53 AM 62.1 °F 57.9 °F 86% 29.68 in 10.0 mi South 15.0 mph - N/A   Clear
6:53 AM 63.0 °F 57.9 °F 84% 29.70 in 10.0 mi South 15.0 mph - N/A   Clear
7:53 AM 64.9 °F 59.0 °F 81% 29.69 in 10.0 mi South 12.7 mph - N/A   Clear
8:53 AM 71.1 °F 60.1 °F 68% 29.68 in 10.0 mi WSW 6.9 mph - N/A   Clear
9:53 AM 78.1 °F 59.0 °F 52% 29.67 in 10.0 mi SW 6.9 mph - N/A   Clear
10:45 AM 79.0 °F 61.0 °F 54% 29.83 in 10.0 mi NNW 16.1 mph 27.6 mph N/A   Clear
10:53 AM 79.0 °F 61.0 °F 54% 29.70 in 10.0 mi NNW 23.0 mph 29.9 mph N/A   Clear
11:53 AM 79.0 °F 57.0 °F 47% 29.71 in 10.0 mi North 17.3 mph 21.9 mph N/A   Clear
12:53 PM 77.0 °F 54.0 °F 45% 29.73 in 10.0 mi North 21.9 mph 29.9 mph N/A   Clear
1:53 PM 75.9 °F 54.0 °F 46% 29.75 in 10.0 mi North 15.0 mph 25.3 mph N/A   Clear
2:53 PM 75.9 °F 53.1 °F 45% 29.74 in 10.0 mi NNE 20.7 mph 25.3 mph N/A   Clear
3:53 PM 73.9 °F 53.1 °F 48% 29.75 in 10.0 mi NE 15.0 mph - N/A   Clear
4:53 PM 73.9 °F 54.0 °F 50% 29.72 in 10.0 mi ENE 15.0 mph - N/A   Clear
5:53 PM 75.0 °F 55.0 °F 50% 29.71 in 10.0 mi ENE 9.2 mph - N/A   Clear
6:53 PM 70.0 °F 55.0 °F 59% 29.71 in 10.0 mi ENE 4.6 mph - N/A   Clear
7:07 PM 69.1 °F 55.9 °F 63% 29.80 in 10.0 mi ENE 8.1 mph - N/A Thunderstorm Thunderstorm
7:23 PM 66.9 °F 57.9 °F 73% 29.91 in 1.0 mi WNW 16.1 mph - 0.00 in Rain , Thunderstorm Light Thunderstorms and Rain
7:26 PM 66.2 °F 57.2 °F 73% 29.87 in 6.0 mi NW 8.1 mph - N/A Rain , Thunderstorm Light Thunderstorms and Rain
7:53 PM 66.2 °F 57.2 °F 73% 29.83 in 10.0 mi North 4.6 mph - N/A Thunderstorm Partly Cloudy
8:00 PM 66.0 °F 57.0 °F 73% 29.84 in 10.0 mi Calm Calm - N/A   Clear
8:53 PM 61.0 °F 57.0 °F 87% 29.75 in 10.0 mi NNW 3.5 mph - N/A   Clear
9:53 PM 61.0 °F 57.0 °F 87% 29.76 in 10.0 mi South 3.5 mph - N/A   Clear
10:53 PM 55.9 °F 55.0 °F 97% 29.78 in 10.0 mi Calm Calm - N/A   Clear
11:53 PM 59.0 °F 54.0 °F 83% 29.80 in 10.0 mi North 10.4 mph - N/A   Clear